Flag for Slovakia Weather past 2 weeks in Piešťany, Slovakia

Now
68 °F

Passing clouds.


Feels Like: 68 °F
Forecast: 44 / 74 °F
Wind: 2 mph from North

Location: Piestany

Current Time: Aug 28, 2014 at 1:06:49 PM

Latest Report: Aug 28, 2014 at 12:30 PM


Visibility: N/A

Pressure: 30.12 "Hg

Humidity: 53%

Dew point: 50 °F

Location of PiešťanyLocation

Historic Weather in Piešťany — Graph

°F

Piešťany temperature yesterday

Maximum temperature yesterday: 66 °F (at 11:30 AM)
Minimum temperature yesterday: 48 °F (at 11:00 PM)
Average temperature yesterday: 59 °F

Past Weeks' High & Low Weather Summary

 TemperatureHumidityPressure
High77 °F (Aug 15, 3:00 PM)100% (Aug 25, 8:00 AM)30.15 "Hg (Aug 25, 8:00 AM)
Low41 °F (Aug 28, 6:30 AM)39% (Aug 18, 4:30 PM)29.62 "Hg (Aug 13, 10:30 PM)
Average61 °F76%29.95 "Hg
* Reported Aug 13 12:00 Noon — Aug 28 12:00 Noon, Piešťany, Weather by CustomWeather, © 2014

Note: Actual official high and low records may vary slightly from our data, if they occured in-between our weather recording intervals... More about our weather records

Advertising

Piešťany weather history for previous 24 hours

 ConditionsComfort  
Time TempWeatherWind HumidityBarometerVisibility
12:00 PM
Aug 28
66 °FPassing clouds.1 mph60%30.12 "HgN/A
11:30 AM66 °FPassing clouds.1 mph64%30.12 "HgN/A
11:00 AM64 °FPassing clouds.3 mph68%30.15 "HgN/A
10:30 AM61 °FPassing clouds.1 mph72%30.15 "HgN/A
10:00 AM57 °FPassing clouds.2 mph82%30.15 "HgN/A
9:30 AM54 °FFog.3 mph88%30.15 "Hg3 mi
9:00 AM52 °FPartly sunny.5 mph94%30.12 "Hg4 mi
8:30 AM50 °FFog.3 mph94%30.12 "Hg1 mi
8:00 AM48 °FFog.5 mph94%30.12 "Hg0 mi
7:30 AM46 °FFog.5 mph93%30.12 "Hg0 mi
7:00 AM45 °FFog.5 mph93%30.09 "Hg0 mi
6:30 AM41 °FFog.3 mph100%30.09 "Hg0 mi
6:00 AM43 °FFog.5 mph93%30.09 "Hg0 mi
5:30 AM43 °FFog.1 mph93%30.09 "Hg0 mi
5:00 AM43 °FFog.1 mph93%30.09 "Hg0 mi
4:30 AM45 °FFog.2 mph93%30.09 "Hg1 mi
4:00 AM45 °FFog.2 mph93%30.07 "Hg1 mi
3:30 AM43 °FFog.3 mph93%30.07 "Hg2 mi
3:00 AM45 °FFog.1 mph93%30.07 "Hg1 mi
2:30 AM45 °FFog.3 mph93%30.07 "Hg2 mi
2:00 AM45 °FFog.3 mph93%30.07 "Hg2 mi
1:30 AM45 °FFog.3 mph93%30.07 "Hg3 mi
1:00 AM46 °FFog.2 mph93%30.07 "Hg2 mi
12:30 AM46 °FCool.2 mph93%30.07 "Hg5 mi
12:00 AM48 °FPartly cloudy.1 mph87%30.07 "Hg4 mi
11:30 PM
Aug 27
48 °FPartly cloudy.2 mph94%30.04 "HgN/A
11:00 PM48 °FPassing clouds.3 mph87%30.04 "Hg6 mi
10:30 PM50 °FCool.2 mph88%30.04 "HgN/A
10:00 PM50 °FClear.2 mph88%30.04 "Hg10 mi
9:30 PM52 °FClear.5 mph88%30.04 "Hg10 mi
9:00 PM52 °FPassing clouds.3 mph82%30.01 "HgN/A
8:00 PM55 °FSunny.6 mph72%30.01 "Hg10 mi
7:30 PM59 °FSunny.6 mph63%29.98 "Hg10 mi
7:00 PM61 °FSunny.9 mph59%29.98 "Hg10 mi
6:30 PM63 °FSunny.14 mph56%29.95 "Hg10 mi
6:00 PM63 °FPassing clouds.17 mph52%29.95 "HgN/A
4:30 PM63 °FPartly sunny.17 mph59%29.92 "HgN/A
4:00 PM63 °FPartly sunny.17 mph64%29.89 "HgN/A
3:30 PM61 °FPartly sunny.20 mph72%29.89 "HgN/A
3:00 PM61 °FPartly sunny.14 mph77%29.86 "HgN/A
2:30 PM61 °FPartly sunny.15 mph77%29.86 "HgN/A
2:00 PM63 °FPartly sunny.18 mph77%29.83 "HgN/A
1:30 PM61 °FPartly sunny.16 mph83%29.83 "HgN/A
1:00 PM61 °FSprinkles. Partly sunny.13 mph88%29.83 "HgN/A
Weather by CustomWeather, © 2014

See weather overviewHow to use our weather pages